| time (UTC) | temp C | wind direction | speed KPH | gust KPH | rain 1hr cm | rain 24hr cm | rain mn cm | humidity % | barometer mb |
| 20260503013855 | 20 | 243 | 0.0 | 0.0 | 0.05 | 0.61 | 1.75 | 60 | 1014.7 |
| 20260503013354 | 21 | 243 | 0.0 | 0.0 | 0.05 | 0.61 | 1.75 | 60 | 1014.7 |
| 20260503013117 | 21 | 243 | 0.0 | 0.0 | 0.05 | 0.61 | 1.75 | 58 | 1014.7 |
| 20260503013001 | 21 | 243 | 0.0 | 0.0 | 0.05 | 0.61 | 1.75 | 58 | 1014.7 |
| 20260503012354 | 21 | 243 | 0.0 | 0.0 | 0.05 | 0.61 | 1.75 | 57 | 1014.7 |
| 20260503011853 | 21 | 243 | 0.0 | 0.0 | 0.05 | 0.61 | 1.75 | 56 | 1014.6 |
| 20260503011353 | 21 | 243 | 0.0 | 0.0 | 0.05 | 0.61 | 1.75 | 55 | 1014.6 |
| 20260503010853 | 21 | 243 | 0.0 | 0.0 | 0.05 | 0.58 | 1.73 | 54 | 1014.6 |
| 20260503010353 | 22 | 243 | 0.0 | 0.0 | 0.05 | 0.58 | 1.73 | 54 | 1014.6 |
| 20260503005854 | 22 | 243 | 0.0 | 0.0 | 0.05 | 0.58 | 1.73 | 52 | 1014.6 |
| 20260503005347 | 22 | 243 | 0.0 | 0.0 | 0.05 | 0.58 | 1.73 | 52 | 1014.4 |
| 20260503005123 | 22 | 243 | 0.0 | 0.0 | 0.05 | 0.58 | 1.73 | 51 | 1014.3 |
| 20260503005003 | 22 | 243 | 0.0 | 0.0 | 0.05 | 0.58 | 1.73 | 51 | 1014.3 |
| 20260503004352 | 22 | 241 | 0.0 | 0.0 | 0.08 | 0.58 | 1.73 | 52 | 1014.3 |
| 20260503003908 | 22 | 241 | 0.0 | 0.0 | 0.05 | 0.56 | 1.70 | 51 | 1014.2 |
| 20260503003352 | 22 | 241 | 0.0 | 0.0 | 0.05 | 0.56 | 1.70 | 51 | 1014.1 |
| 20260503002852 | 22 | 241 | 0.0 | 0.0 | 0.05 | 0.56 | 1.70 | 50 | 1014.0 |
| 20260503002350 | 23 | 75 | 0.0 | 0.0 | 0.05 | 0.56 | 1.70 | 53 | 1014.1 |
| 20260503001852 | 23 | 75 | 0.0 | 1.6 | 0.08 | 0.56 | 1.70 | 50 | 1014.0 |
| 20260503001345 | 23 | 358 | 0.0 | 1.6 | 0.08 | 0.56 | 1.70 | 49 | 1014.0 |
| 20260503001110 | 23 | 216 | 0.0 | 4.8 | 0.05 | 0.53 | 1.68 | 48 | 1013.9 |
| 20260503000954 | 23 | 216 | 0.0 | 4.8 | 0.05 | 0.53 | 1.68 | 48 | 1013.9 |
| 20260503000352 | 23 | 216 | 0.0 | 4.8 | 0.05 | 0.53 | 1.68 | 48 | 1013.8 |
| 20260502235853 | 23 | 310 | 0.0 | 0.0 | 0.05 | 0.53 | 1.68 | 48 | 1013.8 |
| 20260502235351 | 23 | 340 | 0.0 | 0.0 | 0.08 | 0.53 | 1.68 | 49 | 1013.8 |
| 20260502234859 | 23 | 344 | 0.0 | 0.0 | 0.08 | 0.53 | 1.68 | 49 | 1013.8 |
| 20260502234350 | 23 | 42 | 0.0 | 0.0 | 0.05 | 0.51 | 1.65 | 48 | 1013.8 |
| 20260502233850 | 23 | 63 | 0.0 | 0.0 | 0.05 | 0.51 | 1.65 | 47 | 1013.8 |
| 20260502233349 | 23 | 78 | 0.0 | 0.0 | 0.05 | 0.51 | 1.65 | 47 | 1013.7 |
| 20260502233338 | 23 | 182 | 0.0 | 1.6 | 0.08 | 0.51 | 1.65 | 46 | 1013.8 |
| 20260502232954 | 23 | 182 | 0.0 | 1.6 | 0.08 | 0.51 | 1.65 | 46 | 1013.8 |
| 20260502232614 | 23 | 333 | 0.0 | 1.6 | 0.08 | 0.51 | 1.65 | 47 | 1013.8 |
| 20260502232454 | 23 | 333 | 0.0 | 1.6 | 0.08 | 0.51 | 1.65 | 47 | 1013.8 |
| 20260502232112 | 23 | 8 | 0.0 | 1.6 | 0.05 | 0.48 | 1.63 | 46 | 1013.7 |
| 20260502231959 | 23 | 8 | 0.0 | 1.6 | 0.05 | 0.48 | 1.63 | 46 | 1013.7 |
| 20260502231350 | 23 | 48 | 0.0 | 0.0 | 0.05 | 0.48 | 1.63 | 47 | 1013.6 |
| 20260502231111 | 23 | 41 | 0.0 | 3.2 | 0.08 | 0.48 | 1.63 | 45 | 1013.6 |
| 20260502230959 | 23 | 41 | 0.0 | 3.2 | 0.08 | 0.48 | 1.63 | 45 | 1013.6 |
| 20260502230350 | 23 | 275 | 0.0 | 3.2 | 0.08 | 0.48 | 1.63 | 46 | 1013.7 |
| 20260502225851 | 24 | 247 | 0.0 | 1.6 | 0.08 | 0.48 | 1.63 | 46 | 1013.7 |
| 20260502225615 | 24 | 3 | 0.0 | 0.0 | 0.05 | 0.46 | 1.60 | 44 | 1013.7 |
| 20260502225459 | 24 | 3 | 0.0 | 0.0 | 0.05 | 0.46 | 1.60 | 44 | 1013.7 |
| 20260502224851 | 24 | 345 | 0.0 | 0.0 | 0.08 | 0.46 | 1.60 | 45 | 1013.7 |
| 20260502224604 | 24 | 320 | 0.0 | 0.0 | 0.08 | 0.46 | 1.60 | 45 | 1013.7 |
| 20260502224451 | 24 | 320 | 0.0 | 0.0 | 0.08 | 0.46 | 1.60 | 45 | 1013.7 |
| 20260502223852 | 24 | 0 | 0.0 | 0.0 | 0.08 | 0.46 | 1.60 | 46 | 1013.7 |
| 20260502223350 | 23 | 185 | 0.0 | 0.0 | 0.08 | 0.46 | 1.60 | 45 | 1013.7 |
| 20260502222851 | 24 | 147 | 0.0 | 0.0 | 0.08 | 0.43 | 1.57 | 46 | 1013.8 |
| 20260502222349 | 24 | 72 | 0.0 | 1.6 | 0.08 | 0.43 | 1.57 | 44 | 1013.8 |
| 20260502221850 | 24 | 94 | 0.0 | 1.6 | 0.08 | 0.43 | 1.57 | 45 | 1013.9 |
| 20260502221347 | 24 | 82 | 0.0 | 9.7 | 0.08 | 0.43 | 1.57 | 46 | 1013.9 |
| 20260502220849 | 24 | 65 | 0.0 | 9.7 | 0.05 | 0.41 | 1.55 | 45 | 1013.9 |
| 20260502220343 | 24 | 355 | 0.0 | 6.4 | 0.08 | 0.41 | 1.55 | 44 | 1014.0 |
| 20260502220116 | 24 | 75 | 0.0 | 6.4 | 0.08 | 0.41 | 1.55 | 46 | 1013.9 |
| 20260502215951 | 24 | 75 | 0.0 | 6.4 | 0.08 | 0.41 | 1.55 | 46 | 1013.9 |
| 20260502215830 | 24 | 109 | 0.0 | 3.2 | 0.08 | 0.41 | 1.55 | 46 | 1013.9 |
| 20260502215455 | 24 | 109 | 0.0 | 3.2 | 0.08 | 0.41 | 1.55 | 46 | 1013.9 |
| 20260502214851 | 24 | 55 | 0.0 | 6.4 | 0.08 | 0.38 | 1.52 | 44 | 1013.9 |
| 20260502214348 | 24 | 0 | 0.0 | 6.4 | 0.08 | 0.38 | 1.52 | 44 | 1014.0 |
| 20260502213849 | 24 | 343 | 0.0 | 6.4 | 0.08 | 0.38 | 1.52 | 45 | 1014.0 |
| 20260502213346 | 24 | 80 | 0.0 | 19.3 | 0.08 | 0.38 | 1.52 | 45 | 1014.0 |
| 20260502213113 | 23 | 243 | 0.0 | 19.3 | 0.08 | 0.36 | 1.50 | 43 | 1014.0 |
| 20260502212956 | 23 | 243 | 0.0 | 19.3 | 0.08 | 0.36 | 1.50 | 43 | 1014.0 |
| 20260502212341 | 23 | 130 | 0.0 | 8.0 | 0.08 | 0.36 | 1.50 | 44 | 1014.0 |
| 20260502211843 | 24 | 329 | 1.6 | 8.0 | 0.08 | 0.36 | 1.50 | 44 | 1013.9 |
| 20260502211602 | 24 | 106 | 1.6 | 6.4 | 0.10 | 0.36 | 1.50 | 45 | 1014.1 |
| 20260502211450 | 24 | 106 | 1.6 | 6.4 | 0.10 | 0.36 | 1.50 | 45 | 1014.1 |
| 20260502211321 | 24 | 185 | 1.6 | 6.4 | 0.10 | 0.36 | 1.50 | 45 | 1014.2 |
| 20260502210959 | 24 | 185 | 1.6 | 6.4 | 0.10 | 0.36 | 1.50 | 45 | 1014.2 |
| 20260502210609 | 24 | 336 | 1.6 | 6.4 | 0.08 | 0.33 | 1.47 | 45 | 1014.2 |
| 20260502210454 | 24 | 336 | 1.6 | 6.4 | 0.08 | 0.33 | 1.47 | 45 | 1014.2 |
| 20260502205849 | 24 | 337 | 0.0 | 14.5 | 0.10 | 0.33 | 1.47 | 45 | 1014.3 |
| 20260502205346 | 24 | 333 | 1.6 | 14.5 | 0.10 | 0.33 | 1.47 | 45 | 1014.3 |
| 20260502204848 | 24 | 298 | 0.0 | 3.2 | 0.08 | 0.30 | 1.45 | 45 | 1014.2 |
| 20260502204346 | 24 | 80 | 0.0 | 8.0 | 0.08 | 0.30 | 1.45 | 45 | 1014.3 |
| 20260502203847 | 24 | 35 | 1.6 | 8.0 | 0.10 | 0.30 | 1.45 | 46 | 1014.3 |
| 20260502203608 | 24 | 193 | 1.6 | 17.7 | 0.10 | 0.30 | 1.45 | 48 | 1014.5 |
| 20260502203454 | 24 | 193 | 1.6 | 17.7 | 0.10 | 0.30 | 1.45 | 48 | 1014.5 |
| 20260502202846 | 24 | 42 | 3.2 | 17.7 | 0.08 | 0.28 | 1.42 | 45 | 1014.3 |
| 20260502202345 | 24 | 344 | 0.0 | 6.4 | 0.10 | 0.28 | 1.42 | 43 | 1014.5 |
| 20260502201848 | 24 | 104 | 0.0 | 11.3 | 0.10 | 0.28 | 1.42 | 43 | 1014.4 |
| 20260502201345 | 24 | 331 | 4.8 | 11.3 | 0.10 | 0.25 | 1.40 | 43 | 1014.5 |
| 20260502200847 | 25 | 185 | 0.0 | 0.0 | 0.10 | 0.25 | 1.40 | 43 | 1014.5 |
| 20260502200345 | 25 | 73 | 0.0 | 1.6 | 0.10 | 0.25 | 1.40 | 43 | 1014.7 |
| 20260502195849 | 25 | 0 | 0.0 | 4.8 | 0.10 | 0.23 | 1.37 | 44 | 1014.6 |
| 20260502195344 | 24 | 102 | 0.0 | 9.7 | 0.10 | 0.23 | 1.37 | 43 | 1014.6 |
| 20260502194840 | 24 | 338 | 0.0 | 9.7 | 0.10 | 0.23 | 1.37 | 44 | 1014.8 |
| 20260502194339 | 25 | 173 | 1.6 | 6.4 | 0.13 | 0.23 | 1.37 | 43 | 1014.9 |
| 20260502194103 | 25 | 96 | 1.6 | 4.8 | 0.10 | 0.20 | 1.35 | 44 | 1015.0 |
| 20260502193955 | 25 | 96 | 1.6 | 4.8 | 0.10 | 0.20 | 1.35 | 44 | 1015.0 |
| 20260502193345 | 25 | 34 | 0.0 | 0.0 | 0.10 | 0.20 | 1.35 | 46 | 1015.1 |
| 20260502192846 | 25 | 168 | 0.0 | 4.8 | 0.13 | 0.20 | 1.35 | 46 | 1015.0 |
| 20260502192344 | 25 | 299 | 0.0 | 4.8 | 0.10 | 0.18 | 1.32 | 47 | 1015.1 |
| 20260502191845 | 25 | 145 | 0.0 | 4.8 | 0.10 | 0.18 | 1.32 | 48 | 1015.2 |
| 20260502191341 | 25 | 65 | 1.6 | 4.8 | 0.10 | 0.15 | 1.30 | 46 | 1015.2 |
| 20260502190841 | 25 | 4 | 0.0 | 0.0 | 0.10 | 0.15 | 1.30 | 49 | 1015.3 |
| 20260502190558 | 25 | 200 | 0.0 | 0.0 | 0.10 | 0.15 | 1.30 | 45 | 1015.3 |
| 20260502190445 | 25 | 200 | 0.0 | 0.0 | 0.10 | 0.15 | 1.30 | 45 | 1015.3 |
| 20260502185843 | -17 | 0.0 | 1.6 | 0.10 | 0.13 | 1.27 | 1015.4 | ||
| 20260502185343 | 25 | 0 | 0.0 | 1.6 | 0.10 | 0.13 | 1.27 | 49 | 1015.4 |
| 20260502184844 | 25 | 316 | 0.0 | 0.0 | 0.13 | 0.13 | 1.27 | 49 | 1015.4 |
| 20260502184342 | 25 | 261 | 0.0 | 4.8 | 0.10 | 0.10 | 1.24 | 47 | 1015.6 |
| 20260502183845 | 25 | 25 | 0.0 | 4.8 | 0.10 | 0.10 | 1.24 | 47 | 1015.6 |
| 20260502183549 | 24 | 103 | 0.0 | 0.0 | 0.08 | 0.08 | 1.22 | 49 | 1015.7 |
| 20260502183441 | 25 | 300 | 0.0 | 0.0 | 0.10 | 0.10 | 1.24 | 47 | 1015.6 |
| 20260502182952 | 24 | 103 | 0.0 | 0.0 | 0.08 | 0.08 | 1.22 | 49 | 1015.7 |
| 20260502182342 | 24 | 173 | 0.0 | 0.0 | 0.08 | 0.08 | 1.22 | 48 | 1015.7 |
| 20260502181844 | 24 | 154 | 0.0 | 0.0 | 0.08 | 0.08 | 1.22 | 50 | 1015.7 |
| 20260502181559 | 24 | 51 | 0.0 | 0.0 | 0.05 | 0.05 | 1.19 | 48 | 1016.0 |
| 20260502181449 | 24 | 51 | 0.0 | 0.0 | 0.05 | 0.05 | 1.19 | 48 | 1016.0 |
| 20260502180843 | 23 | 252 | 0.0 | 3.2 | 0.05 | 0.05 | 1.19 | 49 | 1015.8 |
| 20260502180342 | 24 | 200 | 0.0 | 3.2 | 0.05 | 0.05 | 1.19 | 52 | 1016.0 |